Regional Weather Roundup
Issued by NWS Northern Indiana

Home | Current Version | Previous Version | Text Only | Print | Product List | Glossary Off
Versions: 1 2 3 4 5 6 7 8 9 10 11 12 13 14 15 16 17 18 19 20 21 22 23 24 25 26 27 28 29 30 31 32 33 34 35 36 37 38 39 40 41 42 43 44 45 46 47 48 49 50

000
ASUS43 KIWX 311310
RWRIWX

KIWX WEATHER ROUNDUP
NATIONAL WEATHER SERVICE NORTHERN INDIANA
900 AM EDT TUE MAY 31 2016

NOTE: "FAIR" INDICATES FEW OR NO CLOUDS BELOW 12,000 FEET WITH NO
SIGNIFICANT WEATHER AND/OR OBSTRUCTIONS TO VISIBILITY.

* THESE STATIONS ARE NOT UNDER NWS QUALITY CONTROL. THEY ALSO MAY NOT
  REPORT WEATHER SUCH AS PRECIPITATION OR FOG.

INZ001>027-311400-
NORTHERN INDIANA

CITY           SKY/WX    TMP DP  RH WIND       PRES   REMARKS
GARY*          PTSUNNY   72  64  78 E8        30.01S
VALPARAISO     CLOUDY    70  57  63 E8        30.02S
MICHIGAN CITY* HAZE      70  57  64 E3        30.03R VSB 3/4
LAPORTE*       MOSUNNY   74  55  51 E8        30.03S
KNOX*          MOSUNNY   72  46  40 E9        30.02R
SOUTH BEND     MOSUNNY   70  53  54 E10       30.04R
ELKHART*       SUNNY     70  57  64 E9        30.04S
GOSHEN         MOSUNNY   71  54  54 E6        30.04R
MONTICELLO*    PTSUNNY   72  52  48 SE6       30.00S
LOGANSPORT*    CLOUDY    70  55  60 E7        30.03S
ROCHESTER*     MOSUNNY   73  59  60 E7        30.03S
WARSAW*        MOSUNNY   70  55  60 CALM      30.04R
ANGOLA*          N/A     72  50  46 E6        30.04S
FORT WAYNE     CLOUDY    68  55  63 NE9       30.04R
HUNTINGTON*    CLOUDY   N/A N/A N/A E5        30.03R
PERU/GRISSOM   CLOUDY    71  57  61 E7        30.01S
MARION*        CLOUDY    70  55  59 E6        30.03S

$$
INZ028>050-311400-
CENTRAL INDIANA

CITY           SKY/WX    TMP DP  RH WIND       PRES   REMARKS
LAFAYETTE      CLOUDY    69  61  75 E3        30.00S
KOKOMO*        MOSUNNY   70  54  56 SE8       30.02S
MUNCIE*        CLOUDY    74  56  53 E5        30.03R
INDIANAPOLIS   PTSUNNY   73  62  68 SW5       30.01R

$$
MIZ043>046-050>051-056>058-064>065-071>073-077>080-311400-
SOUTHWEST LOWER MICHIGAN

CITY           SKY/WX    TMP DP  RH WIND       PRES   REMARKS
BATTLE CREEK   SUNNY     70  52  52 E3        30.06R
BENTON HARBOR  MOSUNNY   71  53  52 E8        30.03R
COLDWATER*     MOSUNNY   70  52  52 E3        30.06R
HILLSDALE*     MOSUNNY   71  46  41 E5        30.05S
HOLLAND        SUNNY     70  55  59 E6        30.06R
GRAND RAPIDS   MOSUNNY   70  54  56 E5        30.07R
KALAMAZOO      SUNNY     71  53  52 CALM      30.06R
STURGIS*       MOSUNNY   71  51  48 E6        30.04S
THREE RIVERS*  FAIR      70  53  54 E5        30.05S

$$
OHZ001>008-015>018-024>025-311400-
NORTHWEST OHIO

CITY           SKY/WX    TMP DP  RH WIND       PRES   REMARKS
WAUSEON*         N/A     72  72 100 NE8       30.04R
DEFIANCE       CLOUDY    71  53  52 NE3       30.04R
FINDLAY        CLOUDY    73  53  49 NE6       30.02R
TOLEDO EXPRESS CLOUDY    70  54  56 NE6       30.03R
TOLEDO METCALF CLOUDY    73  57  57 NE6       30.03R
LIMA           MOSUNNY   71  55  56 NE6       30.03R

$$
AND FOR LAKE MICHIGAN COASTAL AND OPEN LAKE BUOY OBSERVATIONS

STATION/POSITION TEMP    WIND        PRES    VSBY  WAVE
                 AIR SEA DIR/SP/G                  HT/PER
                 (F)     (DEG/KT/KT) (MB)    (MI)  (FT/S)
CALUMET HARBOR    64      60/  4/  7 1015.3R
MICHIGAN CITY     68      90/  9/ 11   N/A
BURNS HARBOR      67      80/  7/  8 1016.6R
SAINT JOSEPH      71      40/  1/  5 1017.6R
SOUTH LAKE BUOY   58 55   40/ 10/ 12 1017.0R         0
4 MI NW BRIDGMAN  69 65   90/ 10/ 14   N/A           1
MICHIGAN CITY     65 61  100/  6/  8   N/A           0

$$
&&




USA.gov is the U.S. government's official web portal to all federal, state and local government web resources and services.